Location: Al Mulaqqa?ah
(24.1833°N, 32.8833°E)
Time: 09:56:21
(UTC+00:00)

EPKM - Pass Details

Date: 26 September 2021
Orbit: 205 x 20501 km, 24.1° (Epoch: 15 October)

Event Time Altitude Azimuth Distance (km) Brightness Sun altitude
Rises 16:25:47 0° 273° (W) 2,064 8.0 -11.1°
Reaches altitude 10° 16:26:58 10° 269° (W) 1,490 6.6 -11.4°
Maximum altitude 16:29:48 65° 186° (S) 807 3.6 -12.0°
Enters shadow 16:37:56 15° 108° (ESE) 4,274 6.7 -13.9°
